Other Public Products
Issued by NWS Grand Forks, ND

Home | Current Version | Previous Version | Text Only | Print | Product List | Glossary Off
Versions: 1 2 3 4 5 6 7 8 9 10 11 12 13 14 15 16 17 18 19 20 21 22 23 24 25 26 27 28 29 30 31 32 33 34 35 36 37 38 39 40 41 42 43 44 45 46 47 48 49 50

000
FPUS83 KFGF 261431
OPUFGF
PRAIRIE TO PINES WEATHER ROUNDUP
NATIONAL WEATHER SERVICE EASTERN NORTH DAKOTA/GRAND FORKS ND
800 AM CST THU FEB 26 2015

 **SATELLITE DATA USED TO AUGMENT SKY COVER AT AUTOMATED STATIONS**
 *****  WEATHER ACROSS EASTERN NORTH DAKOTA  *****

CITY           SKY/WX    TMP DP  RH WIND       PRES   REMARKS
GRAND FORKS    FAIR     -14 -21  71 W6        30.56R WCI -28
GRAND FORKS AF FAIR     -12 -20  68 NW9       30.55R WCI -30
GRAND CITY NWS   N/A    -11 N/A N/A NW5         N/A  WCI -23
BUXTON           N/A    -14 -18  81 W5          N/A  WCI -26
DEVILS LAKE    FAIR     N/A N/A N/A MISG        N/A
FARGO          FAIR     -10 -17  71 N8        30.55R WCI -26
WAHPETON ARPT  FAIR      -8 -15  71 N12       30.54R WCI -27
$$

 *****  WEATHER ACROSS CENTRAL AND WESTERN NORTH DAKOTA  *****

CITY           SKY/WX    TMP DP  RH WIND       PRES   REMARKS
JAMESTOWN      FAIR     -15 -20  78 NW8       30.50R WCI -32
BISMARCK       CLEAR     -9 -16  71 NW8       30.56R WCI -25
MINOT          FAIR     -13 -21  67 W16       30.54R WCI -37
MINOT AFB      FAIR     -16 -22  73 W13       30.54S WCI -38
GARRISON         N/A    -17 -22  78 NW15      30.52S WCI -41
WILLISTON      CLEAR    -17 -23  73 CALM      30.57S
DICKINSON      CLEAR    -11 -17  75 NW8       30.45R WCI -28
HETTINGER      CLEAR    -13 -18  78 NW8       30.45R WCI -30
$$

 *****  OTHER OBSERVATIONS NORTHEAST NORTH DAKOTA  *****

CITY           SKY/WX    TMP DP  RH WIND       PRES   REMARKS
WALHALLA         N/A     -8 -17  65 W8        30.55R WCI -23
LANGDON        NOT AVBL
CAVALIER       FAIR     -11 -17  77 W6        30.55R WCI -25
GRAFTON        NOT AVBL
CANDO          FAIR     -13 -20  70 NW10      30.52R WCI -32
FORT TOTTEN    NOT AVBL
ROLLA          FAIR      -8 -17  65 NW14      30.48R WCI -28
RUGBY          FAIR     -20 -26  76 NW6       30.54R WCI -36
 ***** THE ABOVE OBSERVATIONS ARE NON NWS ARE NOT QUALITY
        CONTROLLED AND MAY MIS-REPORT RAIN FOR SNOW...
$$

 *****  OTHER OBSERVATIONS SOUTHEAST NORTH DAKOTA *****

CITY           SKY/WX    TMP DP  RH WIND       PRES   REMARKS
COOPERSTOWN    NOT AVBL
VALLEY CITY    FAIR     -13 -18  77 NW10      30.51R WCI -32
OAKES            N/A     -9 -15  77 NW14      30.52R WCI -31
GWINNER        SUNNY     -8 -17  65 NW10      30.53R WCI -26
SHEYENNE NWR     N/A    -12 -21  65 NW6       29.95  WCI -26
BUFFALO        NOT AVBL
WYNDMERE         N/A    -13 -18  77 NW7         N/A  WCI -29
 ***** THE ABOVE OBSERVATIONS ARE NON NWS ARE NOT QUALITY
       CONTROLLED AND MAY MIS-REPORT RAIN FOR SNOW...
$$

  *****  WEATHER ACROSS NORTHERN MINNESOTA  *****

CITY           SKY/WX    TMP DP  RH WIND       PRES   REMARKS
FLAG ISLAND    FAIR     -20 -26  76 NW6       30.45R WCI -36
WARROAD        FAIR     -18 -24  76 W7        30.46S WCI -35
ROSEAU         FAIR     -17 -24  70 W5        30.49R WCI -29
HALLOCK        FAIR     -18 -24  76 W2        30.53S
THF RVR FALLS  FAIR     -17 -27  58 NW6       30.49R WCI -31
HALSTAD          N/A    -10 -17  73 NW12        N/A  WCI -30
FOSSTON        FAIR     -18 -22  83 NW6       30.47R WCI -33
BAUDETTE       FAIR     -20 -25  77 W7        30.42R WCI -37
WASKISH        FAIR     -17 -22  76 W5        30.43R WCI -29
CROOKSTON      FAIR     -11 -18  70 NW6       30.56R WCI -25
$$
  *****  WEATHER ACROSS CENTRAL AND WEST MINNESOTA  *****

CITY           SKY/WX    TMP DP  RH WIND       PRES   REMARKS
BEMIDJI        FAIR     -18 -23  77 NW7       30.42R WCI -35
PARK RAPIDS    FAIR     -16 -21  78 NW8       30.40R WCI -34
WADENA         FAIR     -11 -18  70 NW12      30.43R WCI -31
DETROIT LAKES  FAIR     -11 -15  84 NW9       30.46R WCI -29
MOORHEAD       FAIR      -9 -15  77 NW8       30.54S WCI -26
FERGUS FALLS   FAIR      -9 -17  70 N7        30.54R WCI -24
ELBOW LAKE     FAIR     -11 -16  78 NW8       30.48R WCI -27
MORRIS MN      FAIR      -8 -15  71 NW10      30.48R WCI -26
STAPLES        FAIR     -13 -18  77 NW6       30.42R WCI -27
WHEATON        FAIR     -11 -17  77 NW8       30.54R WCI -28
$$
  *****  WEATHER ELSEWHERE ACROSS MINNESOTA  *****

CITY           SKY/WX    TMP DP  RH WIND       PRES   REMARKS
DULUTH         FAIR     -12 -19  71 NW8       30.33R WCI -29
INTRNTL FALLS  FAIR     -20 -25  77 W5        30.40R WCI -33
ELY            FAIR     -20 -26  76 CALM      30.33
CLOQUET        FAIR     -11 -18  70 NW8       30.36R WCI -28
BRAINERD       FAIR     -12 -19  71 N6        30.42R WCI -26
HIBBING        FAIR     -16 -22  74 N6        30.36R WCI -31
ALEXANDRIA     FAIR     -10 -16  74 NW9       30.42R WCI -27
SAINT CLOUD    FAIR      -8 -15  71 NW8       30.43R WCI -24
MINNEAPOLIS    FAIR      -1 -11  62 N7        30.43R WCI -14
$$

  *****  WEATHER ACROSS SOUTH DAKOTA  *****

CITY           SKY/WX    TMP DP  RH WIND       PRES   REMARKS
SIOUX FALLS    FAIR      -7 -13  75 N12       30.46R WCI -26
BROOKINGS      NOT AVBL
WATERTOWN      FAIR     -11 -17  75 NW5       30.42R WCI -23
HURON          CLEAR    -16 -20  82 NW8       30.54R WCI -34
SISSETON         N/A     -9 -14  78 N12       30.51R WCI -28
ABERDEEN       CLEAR     -9 -16  71 NW10      30.53R WCI -27
MITCHELL       CLEAR     -6 -11  79 NW10      30.54R WCI -24
PIERRE         CLEAR     -6 -11  79 N13       30.51R WCI -25
MOBRIDGE       CLEAR    -11 -17  75 N5        30.48R WCI -23
RAPID CITY     CLOUDY    -2  -6  83 N9        30.39S WCI -18
$$

  *****  SOME WEATHER IN NEARBY STATES *****

CITY           SKY/WX    TMP DP  RH WIND       PRES   REMARKS
GLASGOW MT     CLEAR     -8 -14  74 NE6       30.56S WCI -21
GREAT FALLS MT LGT SNOW   7   5  92 E10       30.33F FOG     WCI  -8
CHEYENNE WY    CLOUDY     8   2  76 N6        30.08F WCI  -2
SCOTTSBLUFF NE CLOUDY     8   2  76 N9        30.29R WCI  -5
OMAHA NE       FAIR       2  -5  72 N18       30.47R WCI -19
DES MOINES IA  PTSUNNY    2  -8  63 N14G22    30.39R WCI -16
DAVENPORT IA   PTSUNNY    8  -1  66 N16       30.25R WCI -10
CHICAGO IL     LGT SNOW  16  10  77 NE14G21   30.19R BLWGSNOWWCI   2
EAU CLAIRE WI  FAIR      -5 -12  72 CALM      30.36R
LA CROSSE WI   FAIR       0  -9  65 NW9       30.36R WCI -15
$$

  *****  SOME NATIONAL WEATHER *****

CITY           SKY/WX    TMP DP  RH WIND       PRES   REMARKS
LA GUARDIA NY  CLOUDY    22   6  50 NE15      30.02S WCI   9
RALEIGH NC     DRIZZLE   32  28  85 NE10      29.80R FOG     WCI  24
ATLANTA GA     CLOUDY    33  31  92 NW8       29.87R FOG
NEW ORLEANS LA CLOUDY    38  33  82 N13       30.03R
OKLAHOMA CITY  PTSUNNY   21  10  62 N24G35    30.30R WCI   4
ALBUQUERQUE NM MOCLDY    35  26  69 E13       30.04R
SALT LAKE CITY CLOUDY    36  21  54 SE5       29.95S
LOS ANGELES CA PTCLDY    52  49  89 CALM      29.96R
BOISE ID       CLOUDY    39  34  82 NW8       30.06S
SEATTLE WA     CLOUDY    46  44  93 CALM      30.19F
$$

*** WEATHER ACROSS MANITOBA...SASKATCHEWAN AND ONTARIO ***
                ***ONTARIO***

CITY           SKY/WX    TMP DP  RH WIND       PRES   REMARKS
GERALDTON      SUNNY    -18 -24  76 W7        30.21R WCI -35
THUNDER BAY    SUNNY    -17 -22  76 SW7       30.37R WCI -33
SIOUX LOOKOUT  PTCLDY   -20 -26  76 NW6       30.33R WCI -36
TORONTO        PTSUNNY    5  -2  72 N8        30.14R WCI  -8
BIG TROUT LK   LGT SNOW -15 -20  76 W12       30.14S WCI -36
PICKLE LAKE    PTCLDY   -20 -27  69 W12       30.20S WCI -42
DRYDEN         CLEAR    -22 -26  83 W8        30.34R WCI -41
KENORA         PTCLDY   -20 -26  76 NW9       30.39R WCI -40
$$
                *** MANITOBA***

CITY           SKY/WX    TMP DP  RH WIND       PRES   REMARKS
BRANDON        PTCLDY   -18 -24  76 W14       30.54S WCI -42
DAUPHIN        CLEAR     -8 -15  71 W14       30.55R WCI -28
ISLAND LAKE    PTCLDY   -13 -20  70 W12       30.32R WCI -33
PILOT MOUND      N/A    -17 -22  76 W6          N/A  WCI -31
THE PAS        CLEAR     -9 -17  70 NW13      30.53S WCI -30
THOMPSON       CLEAR     -8 -17  65 W10       30.36S WCI -26
WINNIPEG       CLEAR    -18 -26  69 W8        30.53S WCI -37
LYNN LAKE      CLEAR     -9 -17  70 W8        30.41S WCI -26
CHURCHILL      MOCLDY   -11 -18  70 NW20G28   30.16F WCI -36
GILLAM         CLEAR     -8 -17  65 W13       30.24F WCI -28
$$
                ***SASKATCHEWAN***

CITY           SKY/WX    TMP DP  RH WIND       PRES   REMARKS
ESTEVAN        CRYSTALS -22 -27  76 NW8       30.56S WCI -41
KINDERSLEY     PTCLDY   -15 -20  76 S5        30.54  WCI -27
LLOYDMINSTER   CLEAR     -9 -17  70 S9        30.51F WCI -27
PRINCE ALBERT  CLEAR    -22 -27  76 W3        30.61F
REGINA         CLEAR    -24 -29  76 W7        30.58F WCI -42


USA.gov is the U.S. government's official web portal to all federal, state and local government web resources and services.